Showing default

ECHOSTAR 18, 41592

Orbit data source: Space-Track

ECHOSTAR 18, 41592 is a payload satellite owned by Dish Network (US) in GEO that was launched on Sat, 18 Jun 2016 UTC via an ARIANE 5ECA launch vehicle from the French Guiana (FRGUI). Payload-class satellites include a variety of spacecraft equipped with specific instruments for various scientific and technological missions. These include communications satellites like Starlink; space stations such as the ISS; scientific satellites like the Hubble; Earth observation satellites from companies like Planet Labs, Umbra, and HawkEye 360; GPS; miniature CubeSats for education and research; and military/defense satellites.

Loading next visibility...
Identifier
41592, 2016-039B
Orbit
GEO
Last TLE update
9 hours ago
Origin
Manufacturer
SS/Loral (MDA)
Mission
Operational Commercial Communications
Bus & Motor
SSL-1300, R-4D-15-300
Mass
6,300 kg wet, ~3,500 kg dry
Launch date (UTC)
2016-06-18 (9 years ago)
Launch vehicle
ARIANE 5ECA
Launch site
French Guiana (FRGUI)
Object type
Payload
Rocket body
Debris
Shape & HBR
Box + 2 Pan, 31 m
Radar Cross Section
40.765 m², Large (>1 m²)

Expand to show TLE details & history

TLE from 9 hours ago
0 ECHOSTAR 18
1 41592U 16039B   25128.87000314 -.00000276  00000-0  00000-0 0  9997
2 41592   0.0144 274.3383 0001596 142.0777  62.3527  1.00268428 32574
Epoch: 2025-05-08T20:52Z
Definitive object data (Epoch: 2025-05-08T20:52:48.271Z)
Latitude
-0.01783°
Longitude
-61.35342°
Altitude
35,783.907 km
Speed
3.075 km/s
True Right ascension
07h 55m 07s
True Declination
0° 01' 04"
Sunlit
Object was in daylight at TLE epoch
Visualization TLE readout
Latitude
-0.01421°
Longitude
66.68944°
Altitude
35,793.712 km
Speed
3.074 km/s
Apparent Right ascension
16h 47m 20s
Apparent Declination
-6° 00' 28"
Sunlit
Object is in daylight
Visualization observer readout
Local Sidereal Time
13:32:20
Azimuth
123.826° SE
Elevation
25.835°
Doppler factor
1
Orbital elements
Apogee altitude
35,795.336 km
Perigee altitude
35,781.877 km
Semi-major axis
42,166.743 km
Eccentricity
0.0001596
Inclination
0.0144°
RAAN
274.3383°
Arg. of periapsis
142.0777°
True anomaly
62.3689°
Mean anomaly
62.3527°
Eccentric anomaly
62.3608°
Mean motion
0.25066 °/min
BSTAR
Unknown
Orbital period
1436.2 mins
Loading historical data...
41592 neighbors
Loading maneuver chart data...
Loading SW <> Apogee altitude chart data...
Loading historical data...
Loading historical data...
Loading historical data...
Loading historical data...
Loading historical data...
Loading historical data...
Loading historical data...
Other satellites on launch #39 in the year 2016 (2016-06-18 UTC)

ECHOSTAR 18 Visibility forecast

Observer location: undefined°, undefined°

Span
Click to sort rows by Start time (UTC) header in descending order
Start Az.
Max El. time (UTC)
Max El. Az.
Max El.
End time (UTC)
End Az.
1440 mins2025-05-09 05:23:40.655Z123.84° SE2025-05-09 12:51:40.655Z123.817° SE23.578°2025-05-10 05:23:40.655Z123.855° SE
|